MQC9215 GMME-EDDK

Flight info

Callsign MQC9215
Flight time 2h 38m
Altitude 34000
Route TOLSI UG5 KORIS L27 VJF N10 HIJ Z230 TLD N858 ABRIX DCT ETPAR DCT BOKNO DCT ERTOK DCT GELTA DCT VALEK DCT LUTAX UM163 DIK T856 ERUKI DCT DEPOK
Aircraft B77L/H-SDE1E2E3FGHIJ2J3J4J5M1RWXY/LB1D1

Departure

Time 2026-05-05 16:44
Airport Rabat-Salé Airport (GMME)

Arrival

Time 2026-05-05 19:22
Airport Cologne Bonn Airport (EDDK)
Time Latitude Longitude Altitude Speed Heading
2026-05-05 16:33 34.03805 -6.75221 273 ft 0 kts 211°
2026-05-05 16:40 34.03804 -6.75222 273 ft 2 kts 211°
2026-05-05 16:40 34.03770 -6.75277 273 ft 15 kts 267°
2026-05-05 16:41 34.03830 -6.75435 273 ft 27 kts 301°
2026-05-05 16:41 34.03929 -6.75627 273 ft 27 kts 302°
2026-05-05 16:41 34.03941 -6.75780 273 ft 16 kts 216°
2026-05-05 16:41 34.03845 -6.75855 275 ft 16 kts 212°
2026-05-05 16:42 34.03749 -6.75929 274 ft 16 kts 217°
2026-05-05 16:42 34.03749 -6.76048 278 ft 14 kts 314°
2026-05-05 16:42 34.03823 -6.76106 280 ft 13 kts
2026-05-05 16:42 34.03931 -6.76041 278 ft 26 kts 31°
2026-05-05 16:43 34.04263 -6.75799 272 ft 89 kts 30°
2026-05-05 16:43 34.04974 -6.75280 264 ft 147 kts 30°
2026-05-05 16:43 34.05963 -6.74551 369 ft 175 kts 28°
2026-05-05 16:43 34.07009 -6.73774 837 ft 170 kts 28°
2026-05-05 16:44 34.08024 -6.73034 1444 ft 173 kts 27°
2026-05-05 16:44 34.09049 -6.72289 2049 ft 174 kts 27°
2026-05-05 16:44 34.10150 -6.71494 2281 ft 197 kts 28°
2026-05-05 16:44 34.11398 -6.70656 2499 ft 216 kts 17°
2026-05-05 16:45 34.12923 -6.70693 2672 ft 233 kts 334°
2026-05-05 16:45 34.14171 -6.72013 2996 ft 247 kts 303°
2026-05-05 16:45 34.15135 -6.73711 3792 ft 249 kts 306°
2026-05-05 16:45 34.16286 -6.75327 4374 ft 261 kts 311°
2026-05-05 16:46 34.17596 -6.76899 5037 ft 268 kts 314°
2026-05-05 16:46 34.18991 -6.78404 5842 ft 269 kts 316°
2026-05-05 16:46 34.20434 -6.79853 6626 ft 270 kts 318°
2026-05-05 16:46 34.22108 -6.80919 7121 ft 284 kts 347°
2026-05-05 16:47 34.24095 -6.80793 7742 ft 290 kts 12°
2026-05-05 16:47 34.26039 -6.80049 8430 ft 295 kts 17°
2026-05-05 16:47 34.27979 -6.79224 9160 ft 297 kts 17°
2026-05-05 16:47 34.29935 -6.78438 9942 ft 296 kts 15°
2026-05-05 16:48 34.31917 -6.77702 10526 ft 303 kts 14°
2026-05-05 16:48 34.34017 -6.76973 10723 ft 326 kts 13°
2026-05-05 16:48 34.36283 -6.76225 10911 ft 349 kts 13°
2026-05-05 16:48 34.38707 -6.75450 11101 ft 372 kts 13°
2026-05-05 16:49 34.41251 -6.74648 11639 ft 383 kts 13°
2026-05-05 16:49 34.43852 -6.73835 12390 ft 389 kts 13°
2026-05-05 16:49 34.46491 -6.73013 13245 ft 394 kts 12°
2026-05-05 16:49 34.49164 -6.72182 14043 ft 399 kts 12°
2026-05-05 16:50 34.51871 -6.71341 14744 ft 405 kts 12°
2026-05-05 16:50 34.54626 -6.70475 15408 ft 412 kts 13°
2026-05-05 16:50 34.57412 -6.69559 16096 ft 418 kts 13°
2026-05-05 16:50 34.60239 -6.68610 16723 ft 426 kts 13°
2026-05-05 16:51 34.63116 -6.67640 17302 ft 434 kts 13°
2026-05-05 16:51 34.66051 -6.66650 17890 ft 442 kts 13°
2026-05-05 16:51 34.69038 -6.65644 18474 ft 449 kts 13°
2026-05-05 16:51 34.72058 -6.64628 19080 ft 452 kts 13°
2026-05-05 16:52 34.75061 -6.63619 19756 ft 454 kts 12°
2026-05-05 16:52 34.78109 -6.62594 20426 ft 456 kts 12°
2026-05-05 16:52 34.81178 -6.61563 21035 ft 460 kts 12°
2026-05-05 16:52 34.84260 -6.60527 21802 ft 459 kts 12°
2026-05-05 16:53 34.87349 -6.59487 22474 ft 461 kts 12°
2026-05-05 16:53 34.90457 -6.58442 23015 ft 467 kts 12°
2026-05-05 16:53 34.93603 -6.57383 23526 ft 472 kts 12°
2026-05-05 16:53 34.96780 -6.56313 24020 ft 475 kts 12°
2026-05-05 16:54 34.99977 -6.55234 24557 ft 477 kts 12°
2026-05-05 16:54 35.03175 -6.54153 25114 ft 478 kts 12°
2026-05-05 16:54 35.06389 -6.53066 25624 ft 480 kts 12°
2026-05-05 16:54 35.09619 -6.51973 26105 ft 484 kts 12°
2026-05-05 16:55 35.12884 -6.50868 26537 ft 488 kts 12°
2026-05-05 16:55 35.16160 -6.49758 26985 ft 491 kts 12°
2026-05-05 16:55 35.19465 -6.48637 27444 ft 494 kts 12°
2026-05-05 16:55 35.22781 -6.47511 27900 ft 496 kts 12°
2026-05-05 16:56 35.26121 -6.46376 28351 ft 499 kts 12°
2026-05-05 16:56 35.29473 -6.45236 28812 ft 501 kts 12°
2026-05-05 16:56 35.32841 -6.44089 29253 ft 503 kts 12°
2026-05-05 16:56 35.36225 -6.42936 29628 ft 506 kts 12°
2026-05-05 16:57 35.39622 -6.41778 30080 ft 508 kts 12°
2026-05-05 16:57 35.43024 -6.40617 30526 ft 506 kts 12°
2026-05-05 16:57 35.46410 -6.39460 31033 ft 504 kts 12°
2026-05-05 16:57 35.49782 -6.38307 31527 ft 502 kts 12°
2026-05-05 16:58 35.53142 -6.37157 31983 ft 501 kts 12°
2026-05-05 16:58 35.56496 -6.36009 32413 ft 500 kts 12°
2026-05-05 16:58 35.59843 -6.34863 32821 ft 500 kts 12°
2026-05-05 16:58 35.63213 -6.33708 33011 ft 504 kts 12°
2026-05-05 16:59 35.66547 -6.32564 33339 ft 505 kts 12°
2026-05-05 16:59 35.69930 -6.31401 33799 ft 502 kts 12°
2026-05-05 16:59 35.73263 -6.30128 34209 ft 502 kts 17°
2026-05-05 16:59 35.76506 -6.28491 34511 ft 505 kts 23°
2026-05-05 17:00 35.79609 -6.26444 34784 ft 507 kts 26°
2026-05-05 17:00 35.82693 -6.24324 34934 ft 510 kts 26°
2026-05-05 17:00 35.88985 -6.20217 35023 ft 511 kts 24°
2026-05-05 17:01 35.95268 -6.16201 35007 ft 505 kts 24°
2026-05-05 17:01 36.01482 -6.12180 35018 ft 503 kts 25°
2026-05-05 17:02 36.07675 -6.08159 35011 ft 503 kts 24°
2026-05-05 17:02 36.13885 -6.04123 35022 ft 505 kts 24°
2026-05-05 17:03 36.20141 -6.00108 35024 ft 507 kts 21°
2026-05-05 17:03 36.26763 -5.97227 35017 ft 503 kts 10°
2026-05-05 17:04 36.33628 -5.95736 35004 ft 500 kts
2026-05-05 17:04 36.40544 -5.94587 35010 ft 503 kts
2026-05-05 17:05 36.47489 -5.93403 34994 ft 505 kts
2026-05-05 17:05 36.54443 -5.92173 34985 ft 505 kts
2026-05-05 17:06 36.61345 -5.90934 35022 ft 504 kts
2026-05-05 17:06 36.68276 -5.89689 34990 ft 502 kts
2026-05-05 17:07 36.75161 -5.88452 34995 ft 499 kts
2026-05-05 17:07 36.82018 -5.87220 34995 ft 496 kts
2026-05-05 17:08 36.88842 -5.85992 34991 ft 494 kts
2026-05-05 17:08 36.95640 -5.84767 34975 ft 493 kts
2026-05-05 17:09 37.02429 -5.83541 34972 ft 492 kts
2026-05-05 17:09 37.09215 -5.82313 34994 ft 493 kts
2026-05-05 17:10 37.16003 -5.81083 34968 ft 493 kts
2026-05-05 17:10 37.22796 -5.79848 34953 ft 493 kts
2026-05-05 17:11 37.29537 -5.78621 34964 ft 493 kts
2026-05-05 17:11 37.36365 -5.77376 34982 ft 492 kts
2026-05-05 17:12 37.43061 -5.75628 34966 ft 500 kts 12°
2026-05-05 17:12 37.49543 -5.72306 34962 ft 506 kts 20°
2026-05-05 17:13 37.55861 -5.68401 34952 ft 506 kts 21°
2026-05-05 17:13 37.62187 -5.64491 34967 ft 507 kts 20°
2026-05-05 17:14 37.68530 -5.60619 34947 ft 507 kts 20°
2026-05-05 17:14 37.74893 -5.56752 34964 ft 507 kts 20°
2026-05-05 17:15 37.81247 -5.52885 34953 ft 507 kts 20°
2026-05-05 17:15 37.87605 -5.49004 34973 ft 507 kts 20°
2026-05-05 17:16 37.92891 -5.45771 34957 ft 507 kts 20°
2026-05-05 17:16 37.99239 -5.41880 34966 ft 507 kts 20°
2026-05-05 17:17 38.05584 -5.37986 34960 ft 506 kts 20°
2026-05-05 17:17 38.11920 -5.34089 34970 ft 506 kts 20°
2026-05-05 17:18 38.18258 -5.30181 34958 ft 507 kts 20°
2026-05-05 17:18 38.24603 -5.26262 34967 ft 507 kts 20°
2026-05-05 17:19 38.30953 -5.22333 34965 ft 508 kts 20°
2026-05-05 17:19 38.37307 -5.18394 34969 ft 508 kts 20°
2026-05-05 17:20 38.43629 -5.14466 34964 ft 509 kts 20°
2026-05-05 17:20 38.49994 -5.10507 34959 ft 509 kts 19°
2026-05-05 17:21 38.56476 -5.06990 34984 ft 505 kts 15°
2026-05-05 17:22 38.66281 -5.02067 34957 ft 504 kts 14°
2026-05-05 17:22 38.72794 -4.98747 34947 ft 504 kts 15°
2026-05-05 17:23 38.79290 -4.95402 34981 ft 503 kts 14°
2026-05-05 17:23 38.85780 -4.92054 34968 ft 503 kts 14°
2026-05-05 17:24 38.92275 -4.88698 34949 ft 503 kts 14°
2026-05-05 17:24 38.98761 -4.85343 34950 ft 503 kts 14°
2026-05-05 17:25 39.05245 -4.81980 34974 ft 503 kts 15°
2026-05-05 17:25 39.11738 -4.78599 34956 ft 503 kts 15°
2026-05-05 17:26 39.18214 -4.75219 34946 ft 502 kts 15°
2026-05-05 17:26 39.24683 -4.71847 34967 ft 502 kts 15°
2026-05-05 17:27 39.31162 -4.68475 34960 ft 502 kts 15°
2026-05-05 17:27 39.37636 -4.65093 34949 ft 502 kts 15°
2026-05-05 17:28 39.44107 -4.61704 34947 ft 502 kts 15°
2026-05-05 17:28 39.50570 -4.58312 34973 ft 501 kts 15°
2026-05-05 17:29 39.57024 -4.54919 34963 ft 500 kts 15°
2026-05-05 17:29 39.63471 -4.51524 34948 ft 500 kts 15°
2026-05-05 17:30 39.69869 -4.48145 34942 ft 499 kts 15°
2026-05-05 17:30 39.76303 -4.44742 34949 ft 499 kts 15°
2026-05-05 17:31 39.82733 -4.41324 34949 ft 499 kts 15°
2026-05-05 17:31 39.89149 -4.37875 34942 ft 499 kts 16°
2026-05-05 17:32 39.95560 -4.34423 34981 ft 498 kts 15°
2026-05-05 17:32 40.01932 -4.30809 34942 ft 500 kts 18°
2026-05-05 17:33 40.08224 -4.26913 34943 ft 500 kts 19°
2026-05-05 17:33 40.14504 -4.23007 34934 ft 499 kts 19°
2026-05-05 17:34 40.20789 -4.19143 34951 ft 499 kts 18°
2026-05-05 17:34 40.27070 -4.15300 34944 ft 498 kts 18°
2026-05-05 17:35 40.33341 -4.11458 34939 ft 497 kts 18°
2026-05-05 17:35 40.39598 -4.07614 34945 ft 496 kts 18°
2026-05-05 17:36 40.45850 -4.03764 34957 ft 497 kts 18°
2026-05-05 17:36 40.52106 -3.99900 34947 ft 496 kts 18°
2026-05-05 17:37 40.58300 -3.96069 34963 ft 495 kts 18°
2026-05-05 17:37 40.64536 -3.92206 34975 ft 496 kts 18°
2026-05-05 17:38 40.70782 -3.88327 34972 ft 496 kts 18°
2026-05-05 17:38 40.77026 -3.84441 34957 ft 496 kts 18°
2026-05-05 17:39 40.83266 -3.80547 34969 ft 496 kts 18°
2026-05-05 17:39 40.89522 -3.76641 34961 ft 498 kts 18°
2026-05-05 17:40 40.95797 -3.72710 34967 ft 499 kts 18°
2026-05-05 17:40 41.02079 -3.68764 34966 ft 500 kts 18°
2026-05-05 17:41 41.08368 -3.64809 35007 ft 501 kts 19°
2026-05-05 17:41 41.14662 -3.60843 34986 ft 500 kts 18°
2026-05-05 17:42 41.21030 -3.57211 34992 ft 497 kts 15°
2026-05-05 17:42 41.27444 -3.53779 34990 ft 497 kts 15°
2026-05-05 17:43 41.33804 -3.50336 35000 ft 497 kts 16°
2026-05-05 17:43 41.40195 -3.46826 35003 ft 497 kts 16°
2026-05-05 17:44 41.46583 -3.43304 35012 ft 497 kts 16°
2026-05-05 17:44 41.52980 -3.39780 35032 ft 497 kts 17°
2026-05-05 17:45 41.59379 -3.36252 35013 ft 498 kts 17°
2026-05-05 17:45 41.65782 -3.32713 35009 ft 498 kts 17°
2026-05-05 17:46 41.72193 -3.29162 35005 ft 498 kts 17°
2026-05-05 17:46 41.78601 -3.25604 35012 ft 499 kts 18°
2026-05-05 17:47 41.85008 -3.22039 35007 ft 499 kts 18°
2026-05-05 17:47 41.91411 -3.18468 35010 ft 498 kts 18°
2026-05-05 17:48 41.97813 -3.14890 35010 ft 499 kts 18°
2026-05-05 17:48 42.04218 -3.11302 35020 ft 499 kts 18°
2026-05-05 17:49 42.10625 -3.07705 35012 ft 499 kts 18°
2026-05-05 17:49 42.17021 -3.04107 35031 ft 498 kts 18°
2026-05-05 17:50 42.23423 -3.00498 35009 ft 498 kts 18°
2026-05-05 17:50 42.29822 -2.96882 35017 ft 499 kts 18°
2026-05-05 17:51 42.36221 -2.93257 35016 ft 499 kts 18°
2026-05-05 17:51 42.42619 -2.89627 35020 ft 499 kts 19°
2026-05-05 17:52 42.48888 -2.85552 35021 ft 501 kts 25°
2026-05-05 17:52 42.54978 -2.80910 35015 ft 502 kts 26°
2026-05-05 17:53 42.61048 -2.76243 35030 ft 502 kts 26°
2026-05-05 17:53 42.67131 -2.71604 35017 ft 501 kts 26°
2026-05-05 17:54 42.73219 -2.66983 35016 ft 501 kts 26°
2026-05-05 17:54 42.79312 -2.62351 35020 ft 502 kts 26°
2026-05-05 17:55 42.85403 -2.57706 35020 ft 502 kts 26°
2026-05-05 17:55 42.91499 -2.53045 35005 ft 503 kts 26°
2026-05-05 17:56 42.97563 -2.48398 35005 ft 503 kts 26°
2026-05-05 17:56 43.03664 -2.43711 35015 ft 503 kts 27°
2026-05-05 17:57 43.09757 -2.39021 35010 ft 502 kts 27°
2026-05-05 17:57 43.15840 -2.34326 35006 ft 501 kts 27°
2026-05-05 17:58 43.21913 -2.29630 35015 ft 501 kts 27°
2026-05-05 17:58 43.27977 -2.24927 35008 ft 501 kts 27°
2026-05-05 17:59 43.34038 -2.20219 34991 ft 500 kts 27°
2026-05-05 17:59 43.40089 -2.15506 35010 ft 500 kts 27°
2026-05-05 18:00 43.46142 -2.10782 34993 ft 500 kts 27°
2026-05-05 18:00 43.52188 -2.06050 34999 ft 500 kts 27°
2026-05-05 18:01 43.58230 -2.01310 34990 ft 500 kts 27°
2026-05-05 18:01 43.64270 -1.96566 35000 ft 499 kts 27°
2026-05-05 18:02 43.70431 -1.92145 34993 ft 499 kts 24°
2026-05-05 18:02 43.76657 -1.87906 34972 ft 499 kts 24°
2026-05-05 18:03 43.82879 -1.83651 34987 ft 499 kts 25°
2026-05-05 18:03 43.89089 -1.79352 34979 ft 499 kts 25°
2026-05-05 18:04 43.94247 -1.75757 34979 ft 499 kts 25°
2026-05-05 18:04 44.00446 -1.71425 34972 ft 499 kts 25°
2026-05-05 18:05 44.06640 -1.67090 34978 ft 498 kts 25°
2026-05-05 18:05 44.12829 -1.62748 34972 ft 498 kts 25°
2026-05-05 18:06 44.19009 -1.58404 34972 ft 497 kts 25°
2026-05-05 18:06 44.25178 -1.54058 34967 ft 496 kts 26°
2026-05-05 18:07 44.31336 -1.49706 34959 ft 496 kts 26°
2026-05-05 18:07 44.37494 -1.45347 34967 ft 496 kts 26°
2026-05-05 18:08 44.43653 -1.40978 34976 ft 496 kts 26°
2026-05-05 18:08 44.49831 -1.36583 35332 ft 499 kts 26°
2026-05-05 18:08 44.52921 -1.34380 35666 ft 497 kts 26°
2026-05-05 18:09 44.56002 -1.32181 35884 ft 498 kts 26°
2026-05-05 18:09 44.62182 -1.27763 35945 ft 497 kts 26°
2026-05-05 18:10 44.68314 -1.23370 35937 ft 492 kts 26°
2026-05-05 18:10 44.74394 -1.19002 35942 ft 490 kts 26°
2026-05-05 18:11 44.80451 -1.14642 35939 ft 489 kts 26°
2026-05-05 18:11 44.86514 -1.10267 35942 ft 490 kts 26°
2026-05-05 18:12 44.92591 -1.05871 35945 ft 492 kts 26°
2026-05-05 18:12 44.98700 -1.01441 35943 ft 495 kts 26°
2026-05-05 18:13 45.04792 -0.97012 35942 ft 497 kts 27°
2026-05-05 18:13 45.10950 -0.92525 35936 ft 498 kts 27°
2026-05-05 18:14 45.17112 -0.88023 35931 ft 498 kts 27°
2026-05-05 18:14 45.23242 -0.83421 35924 ft 498 kts 29°
2026-05-05 18:15 45.29247 -0.78524 35926 ft 498 kts 30°
2026-05-05 18:15 45.35226 -0.73582 35919 ft 497 kts 30°
2026-05-05 18:16 45.41209 -0.68678 35923 ft 496 kts 30°
2026-05-05 18:16 45.47197 -0.63791 35915 ft 495 kts 30°
2026-05-05 18:17 45.53170 -0.58912 35916 ft 495 kts 30°
2026-05-05 18:17 45.59015 -0.54125 35913 ft 495 kts 30°
2026-05-05 18:18 45.71560 -0.43804 35903 ft 495 kts 30°
2026-05-05 18:19 45.77523 -0.38878 35900 ft 495 kts 30°
2026-05-05 18:19 45.82488 -0.34768 35899 ft 495 kts 30°
2026-05-05 18:20 45.89460 -0.28982 35894 ft 495 kts 30°
2026-05-05 18:20 45.95413 -0.24028 35891 ft 495 kts 30°
2026-05-05 18:21 46.00373 -0.19891 35896 ft 495 kts 30°
2026-05-05 18:21 46.06331 -0.14910 35888 ft 495 kts 30°
2026-05-05 18:22 46.12272 -0.09931 35885 ft 494 kts 30°
2026-05-05 18:22 46.18210 -0.04943 35882 ft 493 kts 31°
2026-05-05 18:23 46.24132 0.00046 35866 ft 492 kts 31°
2026-05-05 18:23 46.30040 0.05036 35879 ft 492 kts 31°
2026-05-05 18:24 46.35947 0.10037 35877 ft 492 kts 31°
2026-05-05 18:24 46.41821 0.15023 35886 ft 493 kts 31°
2026-05-05 18:25 46.47735 0.20055 35882 ft 494 kts 31°
2026-05-05 18:25 46.53661 0.25110 35888 ft 494 kts 31°
2026-05-05 18:26 46.59581 0.30173 35886 ft 493 kts 31°
2026-05-05 18:26 46.65482 0.35233 35881 ft 492 kts 31°
2026-05-05 18:27 46.71368 0.40294 35877 ft 491 kts 31°
2026-05-05 18:27 46.77243 0.45358 35871 ft 490 kts 31°
2026-05-05 18:28 46.86046 0.52970 35862 ft 491 kts 31°
2026-05-05 18:28 46.91921 0.58067 35857 ft 491 kts 31°
2026-05-05 18:29 46.97805 0.63183 35862 ft 492 kts 31°
2026-05-05 18:29 47.03379 0.68912 35851 ft 489 kts 46°
2026-05-05 18:30 47.07494 0.76777 35858 ft 486 kts 63°
2026-05-05 18:30 47.10505 0.85640 35853 ft 486 kts 65°
2026-05-05 18:31 47.13480 0.94552 35856 ft 486 kts 65°
2026-05-05 18:31 47.16497 1.03452 35851 ft 487 kts 64°
2026-05-05 18:32 47.19539 1.12356 35854 ft 487 kts 65°
2026-05-05 18:32 47.22579 1.21266 35848 ft 488 kts 65°
2026-05-05 18:33 47.25592 1.30133 35847 ft 488 kts 65°
2026-05-05 18:33 47.28617 1.39070 35851 ft 488 kts 65°
2026-05-05 18:34 47.31635 1.48022 35855 ft 488 kts 65°
2026-05-05 18:34 47.34644 1.56976 35857 ft 488 kts 65°
2026-05-05 18:35 47.37646 1.65941 35854 ft 487 kts 65°
2026-05-05 18:35 47.40640 1.74914 35850 ft 487 kts 65°
2026-05-05 18:36 47.43624 1.83889 35854 ft 487 kts 65°
2026-05-05 18:36 47.46605 1.92884 35833 ft 487 kts 65°
2026-05-05 18:37 47.49582 2.01897 35833 ft 488 kts 65°
2026-05-05 18:37 47.52551 2.10920 35821 ft 488 kts 65°
2026-05-05 18:38 47.55514 2.19953 35829 ft 488 kts 65°
2026-05-05 18:38 47.58632 2.28884 35834 ft 489 kts 59°
2026-05-05 18:39 47.62683 2.37000 35834 ft 491 kts 52°
2026-05-05 18:39 47.67030 2.44816 35837 ft 491 kts 51°
2026-05-05 18:40 47.71362 2.52660 35820 ft 492 kts 52°
2026-05-05 18:40 47.75638 2.60505 35836 ft 492 kts 52°
2026-05-05 18:41 47.79927 2.68429 35843 ft 492 kts 52°
2026-05-05 18:41 47.84211 2.76369 35830 ft 492 kts 52°
2026-05-05 18:42 47.88488 2.84315 35841 ft 491 kts 52°
2026-05-05 18:42 47.92761 2.92275 35821 ft 491 kts 52°
2026-05-05 18:43 47.97023 3.00236 35807 ft 491 kts 52°
2026-05-05 18:43 48.01277 3.08207 35826 ft 491 kts 52°
2026-05-05 18:44 48.05521 3.16183 35822 ft 490 kts 53°
2026-05-05 18:44 48.09758 3.24170 35817 ft 490 kts 53°
2026-05-05 18:45 48.13989 3.32168 35798 ft 490 kts 53°
2026-05-05 18:45 48.18212 3.40174 35813 ft 489 kts 53°
2026-05-05 18:46 48.22424 3.48184 35803 ft 489 kts 53°
2026-05-05 18:46 48.26631 3.56209 35805 ft 489 kts 53°
2026-05-05 18:47 48.30826 3.64235 35802 ft 489 kts 53°
2026-05-05 18:47 48.35017 3.72276 35801 ft 489 kts 53°
2026-05-05 18:48 48.39203 3.80332 35805 ft 488 kts 53°
2026-05-05 18:48 48.43373 3.88382 35801 ft 487 kts 53°
2026-05-05 18:49 48.47527 3.96423 35801 ft 486 kts 53°
2026-05-05 18:49 48.51727 4.04381 35796 ft 485 kts 50°
2026-05-05 18:50 48.56207 4.12001 35800 ft 485 kts 49°
2026-05-05 18:50 48.60720 4.19540 35805 ft 483 kts 49°
2026-05-05 18:51 48.65172 4.27048 35799 ft 482 kts 50°
2026-05-05 18:51 48.69613 4.34609 35796 ft 480 kts 50°
2026-05-05 18:52 48.74041 4.42184 35796 ft 480 kts 50°
2026-05-05 18:52 48.78469 4.49779 35802 ft 481 kts 50°
2026-05-05 18:53 48.82897 4.57395 35802 ft 482 kts 50°
2026-05-05 18:53 48.87331 4.65042 35801 ft 483 kts 50°
2026-05-05 18:54 48.91771 4.72721 35800 ft 484 kts 50°
2026-05-05 18:54 48.96215 4.80428 35800 ft 485 kts 50°
2026-05-05 18:55 49.00656 4.88154 35789 ft 485 kts 50°
2026-05-05 18:55 49.05098 4.95906 35802 ft 485 kts 50°
2026-05-05 18:56 49.09537 5.03673 35804 ft 486 kts 50°
2026-05-05 18:56 49.13966 5.11448 35801 ft 486 kts 51°
2026-05-05 18:57 49.18398 5.19251 35806 ft 486 kts 51°
2026-05-05 18:57 49.22821 5.27060 35808 ft 485 kts 51°
2026-05-05 18:58 49.27233 5.34874 35796 ft 485 kts 51°
2026-05-05 18:58 49.31641 5.42705 35816 ft 485 kts 51°
2026-05-05 18:59 49.36044 5.50550 35813 ft 485 kts 51°
2026-05-05 18:59 49.40453 5.58430 35373 ft 493 kts 51°
2026-05-05 19:00 49.42699 5.62456 34665 ft 497 kts 52°
2026-05-05 19:00 49.44932 5.66459 34151 ft 490 kts 52°
2026-05-05 19:00 49.47136 5.70414 33612 ft 484 kts 52°
2026-05-05 19:00 49.49339 5.74293 33027 ft 479 kts 49°
2026-05-05 19:01 49.51725 5.77808 32502 ft 474 kts 43°
2026-05-05 19:01 49.54288 5.80976 32028 ft 470 kts 38°
2026-05-05 19:01 49.57001 5.83735 31523 ft 465 kts 35°
2026-05-05 19:01 49.59719 5.86402 31016 ft 461 kts 35°
2026-05-05 19:02 49.62406 5.89056 30550 ft 455 kts 35°
2026-05-05 19:02 49.65050 5.91692 30066 ft 450 kts 35°
2026-05-05 19:02 49.67662 5.94313 29569 ft 446 kts 36°
2026-05-05 19:02 49.70243 5.96917 29057 ft 441 kts 36°
2026-05-05 19:03 49.72795 5.99497 28601 ft 435 kts 36°
2026-05-05 19:03 49.75313 6.02046 28140 ft 430 kts 35°
2026-05-05 19:03 49.77805 6.04571 27674 ft 426 kts 35°
2026-05-05 19:03 49.80273 6.07075 27245 ft 422 kts 35°
2026-05-05 19:04 49.82718 6.09556 26788 ft 418 kts 35°
2026-05-05 19:04 49.85141 6.12006 26354 ft 415 kts 34°
2026-05-05 19:04 49.87662 6.14186 25908 ft 414 kts 27°
2026-05-05 19:04 49.90286 6.15976 25485 ft 411 kts 25°
2026-05-05 19:05 49.92903 6.17738 25073 ft 408 kts 25°
2026-05-05 19:05 49.95487 6.19514 24647 ft 406 kts 25°
2026-05-05 19:05 49.98050 6.21335 24227 ft 404 kts 26°
2026-05-05 19:05 50.00586 6.23190 23809 ft 402 kts 26°
2026-05-05 19:06 50.03068 6.25024 23399 ft 400 kts 26°
2026-05-05 19:06 50.05573 6.26876 22931 ft 398 kts 26°
2026-05-05 19:06 50.08072 6.28720 22455 ft 395 kts 26°
2026-05-05 19:06 50.10546 6.30543 22057 ft 392 kts 26°
2026-05-05 19:07 50.12998 6.32349 21651 ft 389 kts 26°
2026-05-05 19:07 50.14652 6.33567 21372 ft 388 kts 26°
2026-05-05 19:07 50.17868 6.35938 20844 ft 384 kts 26°
2026-05-05 19:07 50.20276 6.37716 20442 ft 382 kts 26°
2026-05-05 19:08 50.22674 6.39488 20057 ft 380 kts 26°
2026-05-05 19:08 50.25062 6.41255 19649 ft 379 kts 26°
2026-05-05 19:08 50.27437 6.43014 19254 ft 377 kts 26°
2026-05-05 19:08 50.29001 6.44173 18991 ft 376 kts 25°
2026-05-05 19:09 50.31365 6.45928 18586 ft 375 kts 25°
2026-05-05 19:09 50.33721 6.47677 18195 ft 374 kts 25°
2026-05-05 19:09 50.36052 6.49473 17742 ft 373 kts 29°
2026-05-05 19:09 50.38261 6.51634 17209 ft 375 kts 34°
2026-05-05 19:10 50.40426 6.53917 16700 ft 375 kts 34°
2026-05-05 19:10 50.42589 6.56205 16196 ft 375 kts 34°
2026-05-05 19:10 50.44751 6.58480 15709 ft 374 kts 33°
2026-05-05 19:10 50.46914 6.60746 15214 ft 373 kts 34°
2026-05-05 19:11 50.49076 6.63007 14729 ft 374 kts 34°
2026-05-05 19:11 50.51241 6.65269 14234 ft 374 kts 34°
2026-05-05 19:11 50.53411 6.67538 13744 ft 374 kts 34°
2026-05-05 19:11 50.55577 6.69805 13198 ft 374 kts 34°
2026-05-05 19:12 50.57745 6.72082 12686 ft 374 kts 34°
2026-05-05 19:12 50.59698 6.74656 12142 ft 364 kts 53°
2026-05-05 19:12 50.60901 6.78094 11706 ft 358 kts 72°
2026-05-05 19:12 50.61405 6.81896 11298 ft 353 kts 84°
2026-05-05 19:13 50.61664 6.85715 10861 ft 350 kts 85°
2026-05-05 19:13 50.61919 6.89513 10411 ft 348 kts 85°
2026-05-05 19:13 50.62190 6.93292 10007 ft 346 kts 84°
2026-05-05 19:13 50.62468 6.97008 9837 ft 336 kts 84°
2026-05-05 19:14 50.62737 7.00579 9810 ft 321 kts 84°
2026-05-05 19:14 50.62990 7.03991 9699 ft 303 kts 84°
2026-05-05 19:14 50.63224 7.07167 9336 ft 283 kts 84°
2026-05-05 19:14 50.63446 7.10203 8606 ft 278 kts 83°
2026-05-05 19:15 50.63665 7.13204 7869 ft 274 kts 84°
2026-05-05 19:15 50.63881 7.16168 7126 ft 272 kts 84°
2026-05-05 19:15 50.64093 7.19104 6455 ft 270 kts 84°
2026-05-05 19:15 50.64308 7.22059 6007 ft 272 kts 84°
2026-05-05 19:16 50.64515 7.24943 6027 ft 259 kts 84°
2026-05-05 19:16 50.64750 7.27775 5752 ft 265 kts 76°
2026-05-05 19:16 50.65632 7.30315 5408 ft 266 kts 47°
2026-05-05 19:16 50.66989 7.32201 5064 ft 258 kts 29°
2026-05-05 19:17 50.68625 7.33175 4738 ft 244 kts 15°
2026-05-05 19:17 50.70208 7.33779 4545 ft 224 kts 14°
2026-05-05 19:17 50.71706 7.34265 4454 ft 217 kts
2026-05-05 19:17 50.73168 7.33849 4045 ft 216 kts 332°
2026-05-05 19:18 50.74396 7.32444 3542 ft 219 kts 323°
2026-05-05 19:18 50.75596 7.30974 3003 ft 215 kts 321°
2026-05-05 19:18 50.76653 7.29424 2755 ft 209 kts 318°
2026-05-05 19:18 50.77688 7.27887 2446 ft 199 kts 319°
2026-05-05 19:19 50.78681 7.26441 2218 ft 187 kts 320°
2026-05-05 19:19 50.79605 7.25105 1946 ft 174 kts 320°
2026-05-05 19:19 50.80454 7.23877 1735 ft 153 kts 320°
2026-05-05 19:19 50.81226 7.22770 1521 ft 152 kts 320°
2026-05-05 19:20 50.82015 7.21630 1302 ft 154 kts 319°
2026-05-05 19:20 50.82799 7.20496 1100 ft 152 kts 318°
2026-05-05 19:20 50.83567 7.19379 880 ft 149 kts 318°
2026-05-05 19:20 50.84325 7.18288 683 ft 147 kts 318°
2026-05-05 19:21 50.85070 7.17207 466 ft 144 kts 318°
2026-05-05 19:21 50.85814 7.16140 315 ft 143 kts 318°
2026-05-05 19:21 50.86479 7.15185 285 ft 110 kts 317°
2026-05-05 19:21 50.86928 7.14536 264 ft 65 kts 318°
2026-05-05 19:22 50.87180 7.14170 252 ft 39 kts 317°
2026-05-05 19:22 50.87295 7.13890 246 ft 30 kts 288°
2026-05-05 19:22 50.87324 7.13667 241 ft 14 kts 279°
2026-05-05 19:22 50.87334 7.13576 239 ft 7 kts 279°
2026-05-05 19:23 50.87341 7.13504 238 ft 6 kts 279°
2026-05-05 19:23 50.87349 7.13438 237 ft 6 kts 279°
2026-05-05 19:23 50.87356 7.13371 237 ft 6 kts 279°
2026-05-05 19:23 50.87345 7.13308 237 ft 6 kts 231°
2026-05-05 19:24 50.87315 7.13260 237 ft 6 kts 226°
2026-05-05 19:24 50.87288 7.13215 237 ft 3 kts 227°
2026-05-05 19:24 50.87286 7.13210 237 ft 0 kts 227°
2026-05-05 19:24 50.87285 7.13210 237 ft 0 kts 227°